Weather in Punta Gorda

Belize     16°05′53″N   88°48′37″W
temp.,
°C
wind,
m/s
gust,
m/s
humid.,
%
clouds,
%
prec.,
mm/h
press.,
hPa
HPBL,
m
22 january, sat
sat2200:00+23n348724 6.4 1016181
03:00+22w6791100 2.9 1015271
06:00+22w679198 3.1 1017364
09:00+23w678649 0.1 1019486
12:00+24w568249 1.1 1018522
15:00+25w347731 1.3 1015519
18:00+25nw227641 2.8 1016193
21:00+24nw228118 0.8 1018157
23 january, sun
sun2300:00+22w448937 1.9 1017165
03:00+22w449046 0.9 1016192
06:00+22w449074 1.7 1017206
09:00+22w458844 0.4 1019273
12:00+26ssw11699 0.9 1017479
15:00+26ese44679 0.0 1013475
18:00+25ene55762 0.1 1014473
21:00+24ne458027 1.2 1016391
24 january, mon
mon2400:00+23n238417 3.2 1015166
03:00+22wnw338854 1.5 1013165
06:00+22w328837 1.9 1014189
09:00+23w228715 0.1 1016282
12:00+24e22763 0.1 1013399
15:00+26ene44720 0.0 1010476
18:00+26ene56750 0.0 1010505
21:00+26e567610 0.0 1012771
25 january, tue
tue2500:00+25e358072 0.1 1011644
03:00+24wsw118550 0.1 1010205
06:00+22w229224 0.1 1011150
09:00+24w228515 0.0 1012275
12:00+26e22760 0.0 1010307
15:00+27ene44690 0.0 1008364
18:00+27ene57791 0.2 1010263
21:00+26ne46857 0.2 1012515
26 january, wed
wed2600:00+25se128342 0.5 1012435
03:00+22w459546 1.1 1012185
06:00+23w469153 1.5 1014301
09:00+24w458643 0.0 1015338
12:00+27ene01669 0.0 1013573
15:00+27e44670 0.0 1011421
18:00+26ene56790 0.0 1012352
21:00+25ne57846 0.1 1014553